Regional Weather Roundup
Issued by NWS

Home | Current Version | Previous Version | Text Only | Print | Product List | Glossary Off
Versions: 1 2 3 4 5 6 7 8 9 10 11 12 13 14 15 16 17 18 19 20 21 22 23 24 25 26 27 28 29 30 31 32 33 34 35 36 37 38 39 40 41 42 43 44 45 46 47 48 49 50

000
ASUS43 KMKX 182020
RWRWI

WISCONSIN REGIONAL WEATHER ROUNDUP
NATIONAL WEATHER SERVICE MILWAUKEE/SULLIVAN WI
200 PM CST SUN FEB 18 2018

NOTE: "FAIR" INDICATES FEW OR NO CLOUDS BELOW 12,000 FEET WITH NO
SIGNIFICANT WEATHER AND/OR OBSTRUCTIONS TO VISIBILITY.

WIZ001-002-006>008-014>016-023>028-182100-
NORTHWEST WISCONSIN

CITY           SKY/WX    TMP DP  RH WIND       PRES   REMARKS
SUPERIOR ARPT  CLOUDY    23  18  82 NE12G17   29.72F WCI  11
ASHLAND        CLOUDY    25  14  63 N8        29.74R WCI  16
HAYWARD        CLOUDY    32  20  61 S7        29.68S WCI  26
SIREN          FAIR      35  24  63 S16       29.65F WCI  25
CUMBERLAND     FAIR      34  23  64 S16       29.66S WCI  23
RICE LAKE      FAIR      36  26  67 SE18G29   29.69S WCI  25
CHETEK         FAIR      37  26  66 S13G25    29.68F WCI  28
LADYSMITH      CLOUDY    34  23  64 SE20G28   29.70F WCI  23
EAU CLAIRE     FAIR      37  27  67 S24G39    29.69F WCI  26
MENOMONIE      FAIR      41  26  56 SE15G21   29.69F
NEW RICHMOND   FAIR      40  26  56 S13G23    29.65F WCI  32
OSCEOLA        FAIR      40  28  61 S21       29.66F WCI  31
$$

WIZ003>005-009-010-017-018-182100-
NORTH CENTRAL WISCONSIN

CITY           SKY/WX    TMP DP  RH WIND       PRES   REMARKS
MANITOWISH WTR CLOUDY    27  15  61 S17G23    29.72F WCI  14
ARBOR VITAE    CLOUDY    32  20  61 S17G30    29.74F WCI  21
WOODRUFF       CLOUDY    32  20  61 S17G30    29.74F WCI  21
RHINELANDER    CLOUDY    29  17  61 S18G31    29.79F WCI  16
EAGLE RIVER    FAIR      28  13  53 S10G22    29.78F WCI  18
LAND O LAKES   CLOUDY    27  12  53 S16G25    29.79F WCI  15
PHILLIPS       CLOUDY    31  20  65 S23G31    29.71F WCI  18
TOMAHAWK       CLOUDY    30  19  61 SE9G17    29.78F WCI  22
MEDFORD        FAIR      34  23  65 SE18G26   29.76F WCI  23
MERRILL        CLOUDY    32  20  62 SE14G21   29.83F WCI  22
$$

WIZ029-030-035-036-043>047-182100-
CENTRAL WISCONSIN

CITY           SKY/WX    TMP DP  RH WIND       PRES   REMARKS
WAUSAU         CLOUDY    33  23  66 S20G35    29.82F WCI  21
MOSINEE        CLOUDY    30  23  74 S21G31    29.86F WCI  17
MARSHFIELD     PTSUNNY   35  25  66 S21G30    29.80F WCI  24
STEVENS POINT  FAIR      34  23  63 SE14G26   29.88F WCI  25
WAUPACA        FAIR      37  24  58 S16G25    29.96F WCI  28
WAUTOMA        CLOUDY    35  22  58 S21       29.94F WCI  24
WISC RAPIDS    CLOUDY    38  22  52 S14G21    29.87F WCI  30
CAMP DOUGLAS   CLOUDY    37  25  60 S15G28    29.84F WCI  28
$$

WIZ011>013-019>022-031-037>040-048>050-182100-
NORTHEAST WISCONSIN

CITY           SKY/WX    TMP DP  RH WIND       PRES   REMARKS
ANTIGO         FAIR      27  20  76 SE23G32   29.86F HAZE    WCI  13
SHAWANO        FAIR      37  22  56 S7        29.96F WCI  31
OCONTO         PTSUNNY   32  21  65 S10G17    30.02F WCI  24
STURGEON BAY   FAIR      32  26  78 S25G32    30.02F WCI  19
GREEN BAY      FAIR      37  22  54 S18       30.00F WCI  27
MANITOWOC      FAIR      33  27  78 S26G32    30.06F WCI  20
APPLETON       PTSUNNY   36  19  51 S20       29.98F WCI  25
CLINTONVILLE   PTSUNNY   35  22  60 S17G25    29.96F WCI  24
OSHKOSH        PTSUNNY   36  23  59 S21G32    30.00F WCI  25
$$

WIZ032>034-041-042-053>061-182100-
SOUTHWEST WISCONSIN

CITY           SKY/WX    TMP DP  RH WIND       PRES   REMARKS
LA CROSSE      FAIR      41  28  60 S23G31    29.80F
SPARTA         CLOUDY    39  26  60 S18G30    29.84F WCI  29
VIROQUA        CLOUDY    35  28  74 S21G29    29.83F WCI  24
BOSCOBEL       CLOUDY    38  27  64 VRB6      29.91F WCI  33
PRAIRIE DU CHI CLOUDY    40  24  54 SE17G24   29.87F WCI  31
PLATTEVILLE    FAIR      37  30  74 SE18      29.93F WCI  27
$$

WIZ056-057-062-063-064-067-068-182100-
SOUTH CENTRAL WISCONSIN

CITY           SKY/WX    TMP DP  RH WIND       PRES   REMARKS
REEDSBURG      CLOUDY    36  25  63 S14G21    29.91F WCI  27
BARABOO/DELLS  PTSUNNY   34  24  66 S18       29.92F WCI  23
LONE ROCK      CLOUDY    37  27  67 S15G28    29.93F WCI  28
MINERAL POINT  FAIR      36  32  87 SE21      29.92F WCI  24
MADISON        PTSUNNY   33  25  72 S23G30    29.98F WCI  21
MIDDLETON      FAIR      36  26  67 S16G25    29.97F WCI  26
WATERTOWN      FAIR      33  24  69 S14G22    30.02F WCI  23
MONROE         FAIR      32  28  86 S16       29.98F WCI  21
JANESVILLE     PTSUNNY   36  25  64 S23G29    30.03F WCI  24
$$

WIZ051-052-058>065-066-070>072-182100-
SOUTHEAST WISCONSIN

CITY           SKY/WX    TMP DP  RH WIND       PRES   REMARKS
MILWAUKEE      PTSUNNY   38  24  57 S18G28    30.09F WCI  28
WAUKESHA       SUNNY     34  21  60 S16       30.08F WCI  23
MILWAUKEE/TIMM SUNNY     36  19  51 S14G20    30.09F WCI  27
RACINE         FAIR      33  27  78 S15G25    30.12F WCI  23
BURLINGTON     FAIR      35  23  62 S15       30.07F WCI  25
KENOSHA        FAIR      38  24  57 S12       30.09F WCI  30
FOND DU LAC    FAIR      37  22  54 S21G29    30.00F WCI  26
SHEBOYGAN      FAIR      34  28  79 S16       30.06F WCI  24
WEST BEND      FAIR      36  21  55 S10G22    30.04F WCI  28
JUNEAU         FAIR      32  23  69 SE22      30.03F WCI  19
$$

LSZ147-162-182100-
LAKE SUPERIOR

STATION/POSITION TIME  TEMP    WIND        PRES    WAVE
                       AIR SEA DIR/SP/G            HT/PER
                 (UTC) (F)     (DEG/KT/KT) (MB)    (FT/S)
DEVILS ISLAND    2000   23      70/ 22/ 24 1009.4F
SAXON HARBOR     2001   32     230/  9     1006.8
$$

LMZ867-665-643>646-182100-
LAKE MICHIGAN

STATION/POSITION TIME  TEMP    WIND        PRES    WAVE
                       AIR SEA DIR/SP/G            HT/PER
                 (UTC) (F)     (DEG/KT/KT) (MB)    (FT/S)
NORTHPORT PIER   1940   31                 1017.9F
KEWAUNEE LAKESHO 1954   32     170/ 25/ 30 1017.5F
SHEBOYGAN LAKESH 2000   32     170/ 26/ 28 1018.6F
PORT WASHINGTON  1930   34     170/ 20/ 23 1020.0F
MILWAUKEE LAKESH 2000   34     160/ 15/ 19   N/A
KENOSHA   LAKESH 2000   31     160/ 21/ 23 1019.3
$$

TC  - TEMPERATURE IN CELSIUS
VSB - VISIBILITY IN STATUTE MILES
WCI - WIND CHILL INDEX
HX  - HEAT INDEX





USA.gov is the U.S. government's official web portal to all federal, state and local government web resources and services.